Regional Weather Roundup
Issued by NWS

Home | Current Version | Previous Version | Text Only | Print | Product List | Glossary Off
Versions: 1 2 3 4 5 6 7 8 9 10 11 12 13 14 15 16 17 18 19 20 21 22 23 24 25 26 27 28 29 30 31 32 33 34 35 36 37 38 39 40 41 42 43 44 45 46 47 48 49 50

934
ASUS45 KBOU 040207
RWRCO

WEATHER ROUNDUP FOR COLORADO
NATIONAL WEATHER SERVICE DENVER/BOULDER CO
700 PM MST SAT DEC 03 2016

NOTE: "FAIR" INDICATES FEW OR NO CLOUDS BELOW 12000 FEET WITH NO
SIGNIFICANT WEATHER AND/OR OBSTRUCTIONS TO VISIBILITY.

COZ001>005-013-030-031-040300-
...NORTHWEST COLORADO...

CITY           SKY/WX    TMP DP  RH WIND       PRES   REMARKS
CRAIG          CLOUDY    26  15  63 CALM      30.16R
HAYDEN         CLOUDY    23  12  63 CALM      30.14R
MEEKER         FAIR      18  13  80 NW3       30.15R
MOUNT WERNER   NOT AVBL
STEAMBOAT SPGS CLOUDY    20  15  81 CALM      30.13R
WALDEN           N/A     18  10  73 S9        30.07S WCI   6
$$

COZ006>008-011-040300-
...WEST CENTRAL VALLEYS...

CITY           SKY/WX    TMP DP  RH WIND       PRES   REMARKS
GRAND JUNCTION FAIR      28  17  63 N6        30.17R WCI  22
MONTROSE       FAIR      26  17  68 S8        30.17R WCI  18
EAGLE          MOCLDY   N/A N/A N/A SW3       30.16R
RIFLE          MOCLDY    23  18  81 S6        30.18R WCI  16
DELTA          NOT AVBL
NUCLA          FAIR      28  10  47 CALM      30.17R
$$

COZ017>023-064>068-040300-
...SOUTHWEST COLORADO...

CITY           SKY/WX    TMP DP  RH WIND       PRES   REMARKS
DURANGO        FAIR      27  22  81 E8        30.04R WCI  19
CORTEZ         FAIR      30  10  43 N10       30.11R WCI  21
PAGOSA SPRINGS FAIR      25  23  92 CALM      30.05R
TELLURIDE      FAIR      18   8  62 CALM      30.12R
WOLF CREEK PAS FAIR      10  10 100 CALM      30.08R
$$

COZ009-010-012-014-032>034-037-058>063-040300-
...CENTRAL COLORADO...

CITY           SKY/WX    TMP DP  RH WIND       PRES   REMARKS
ASPEN          CLOUDY    21  13  71 CALM      30.09S
BUENA VISTA    FAIR      23   7  50 NW14      30.04R WCI  11
COPPER MTN     CLOUDY    12   3  67 MISG      29.99R
BERTHOUD PASS  CLOUDY     1  -9  60 NW33G47   29.90F WCI -25
COTTONWOOD PAS FAIR      23   1  39 W15G24    30.01R WCI  10
GUNNISON       FAIR      18   9  68 SE5       30.10R WCI  11
KREMMLING      CLOUDY    27  18  69 E8        30.11S WCI  18
LEADVILLE      MOCLDY     6   1  80 NE6       30.03R WCI  -4
MONARCH PASS   MOCLDY     9   5  85 SW18      30.10S WCI -10
SALIDA         FAIR      28  11  49 W3        30.11S
SUNLIGHT       FAIR       9   3  78 W6        30.11R WCI  -1
WILKERSON PASS FAIR      12   3  67 NW10G18   30.00S WCI  -1
$$

COZ069>075-040300-
...SAN LUIS VALLEY/SANGRE DE CRISTO MOUNTAINS...

CITY           SKY/WX    TMP DP  RH WIND       PRES   REMARKS
ALAMOSA        FAIR      13  12  96 SW3       30.04R
LA VETA PASS   FAIR      16  12  86 NE14G21   29.99S WCI   1
SAGUACHE       FAIR      25   7  46 N5        30.06R WCI  19
$$

COZ035-036-038>040-040300-
...NORTHERN COLORADO FRONT RANGE...

CITY           SKY/WX    TMP DP  RH WIND       PRES   REMARKS
DENVER INTL AP FAIR      31  17  56 CALM      30.02R
DMNS CITY PARK   N/A     32  15  49 E3G9      30.03R
AURORA         PTCLDY    29  16  58 NE5       30.02R WCI  24
FRONT RANGE AP PTCLDY    28  19  69 E6        30.03R WCI  22
ERIE MUNI ARPT FAIR      25  10  53 CALM      30.03R
BOULDER MUN AP FAIR      36   9  32 SW8       30.02R
CENTENNIAL     FAIR      30  12  47 CALM      30.01R
BROOMFIELD     PTCLDY    34   9  35 N7        30.02R WCI  28
FORT COLLINS   FAIR      28  14  54 N7        30.03R WCI  21
LONGMONT       FAIR      33   8  35 CALM      30.04S
$$

COZ041-046-047-076>085-087-088-040300-
...PIKES PEAK/PALMER DIVIDE AND SOUTHERN FOOTHILLS...

CITY           SKY/WX    TMP DP  RH WIND       PRES   REMARKS
COLO. SPRINGS  FAIR      29   6  38 N6        30.02R WCI  23
A. F. ACADEMY  FAIR      23  11  59 N9        30.00R WCI  13
SCHRIEVER AFB  NOT AVBL
ELLICOTT       FAIR     N/A N/A N/A NE12      29.99R
FALCON         CLOUDY    29   8  41 CALM      30.01R
FORT CARSON    FAIR      29   8  41 CALM      30.00R
LIMON          FAIR      19  13  77 CALM      30.01R
MONUMENT HILL  CLOUDY    27   9  46 CALM      30.02R
TRINIDAD       FAIR      30  15  53 NW5       29.99R WCI  25
$$

COZ042>045-048>051-090-091-040300-
...NORTHEAST COLORADO...

CITY           SKY/WX    TMP DP  RH WIND       PRES   REMARKS
GREELEY ARPT   FAIR      31  15  52 NW9       30.04R WCI  23
AKRON          CLOUDY    27  14  58 NW8       30.01R WCI  19
BURLINGTON     FAIR      25  19  78 SW9       29.99R WCI  15
WRAY           FAIR      32  16  51 NW8       30.01  WCI  25
STERLING       CLOUDY    36  16  44 NW15      30.01R
HOLYOKE        FAIR      34  14  44 NW9       30.00R WCI  26
FORT MORGAN    MOCLDY    31  13  46 W10       30.03R WCI  22
$$

COZ086-089-092>099-040300-
...SOUTHEAST COLORADO...

CITY           SKY/WX    TMP DP  RH WIND       PRES   REMARKS
PUEBLO         FAIR      26  17  68 N8        29.99R WCI  18
LA JUNTA       FAIR      32  19  58 CALM      29.99R
LAMAR          FAIR      28  25  88 SE8       29.98R WCI  20
SPRINGFIELD      N/A     23  22  96 NW7       29.95S WCI  15
$$




USA.gov is the U.S. government's official web portal to all federal, state and local government web resources and services.